weather.gov     
National Weather Service

Regional Weather Roundup
NWS Homepage
This page is being discontinued on March 12, 2014.
The same data is available at this site. Please update your bookmarks.
Thank you, and we apologize for the inconvenience.
Please send an email to SR-SRH.Webmaster@noaa.gov with any concerns.


Current Version
Previous Version:    01  02  03  04  05  06  07  08  09  10  11  12  13  14  15  16  17  18  19  20  21  22  23  24  25  26  27  28  29  30  
   31  32  33  34  35  36  37  38  39  40  41  42  43  44  45  46  47  48  49  50  51  52  53  54  55  
[Printable]
682
ASCA42 TJSJ 292011
RWRPR
PUERTO RICO/U.S. VIRGIN ISLANDS HOURLY WEATHER ROUNDUP
NATIONAL WEATHER SERVICE SAN JUAN PR
400 PM AST FRI AUG 29 2014

PRZ001-004-292100-
PUERTO RICO

CITY           SKY/WX    TMP DP  RH WIND       PRES   REMARKS
SAN JUAN LMM   MOSUNNY   82  72  69 E5        29.99S
PONCE          PTSUNNY   90  77  66 S14       29.95  THUNDER HX 102
MAYAGUEZ       PTSUNNY   91  72  52 W10       29.99S HX  98
AGUADILLA      CLOUDY    81  75  83 E10       30.01S
CEIBA          SUNNY     82  75  78 NE3       30.02S
$$

PRZ006-007-292100-
U.S. VIRGIN ISLANDS

CITY           SKY/WX    TMP DP  RH WIND       PRES   REMARKS
$$

HOURLY WEATHER ROUNDUP FOR THE NEWS MEDIA

CITY           SKY/WX    TMP DP  RH WIND       PRES   REMARKS
MIAMI          PTSUNNY   91  76  61 E9        30.01F HX 103
ORLANDO        PTSUNNY   86  74  67 E5        30.00F HX  94
NEW YORK       MOSUNNY   75  53  46 S13       30.19R
NEWARK         PTSUNNY   78  48  34 E8        30.16S
CHICAGO        CLOUDY    85  70  60 SE13      29.90F
HARTFORD       SUNNY     73  55  53 VRB6G18   30.18S
BOSTON         MOSUNNY   67  55  65 E13       30.20
DALLAS         PTSUNNY   91  67  44 CALM      29.86F HX  94
PHILADELPHIA   PTSUNNY   78  49  35 VRB3      30.16S




U.S. Dept. of Commerce
NOAA National Weather Service
1325 East West Highway
Silver Spring, MD 20910
E-mail: w-nws.webmaster@noaa.gov
Page last modified: May 16, 2007
NATIONAL WEATHER SERVICE: for Safety, for Work, for Fun - FOR LIFE